x

Sentry Shoal (46131) Wave Buoy

4:00 - Sat 24th Jun 2017 All times are PDT. -7 hours from GMT.

  • Sig Wave height 0.3ft
  • Peak Period 2s
  • Wind
    4mph, 4mph gusts
  • Sea Temp 66°f
  • Ar Temp 72°f
  • Sea Pressure 1019.3mb
  • Sentry Shoal
  • Sentry Shoal

More Historic Weather Station data

Upgrade to MSW Pro to gain access to the past 30 days of data for over 8000 Wavebouys and Weather Stations around the globe.

Join Pro

Comparision Forecast

View Surf forecast
   
Sáb 06/24 4:00 0.3ft 2s 4 4 mph 1019.3mb 66f 72f
3:00 0.3ft 2s 2 2 mph 1020mb 67f 71f
2:00 0.3ft 2s 2 2 mph 1020.7mb 65f 69f
1:00 0.3ft 2s 2 4 mph 1021.3mb 64f 67f
12:00 0.3ft 2s 2 4 mph 1022mb 61f 64f
11:00 0.3ft 3s 2 4 mph 1022.5mb 62f 62f
10:00 0.3ft 3s 2 4 mph 1022.7mb 59f 61f
9:00 0.3ft 2s 7 7 mph 1022.8mb 58f 60f
8:00 0.3ft 2s 9 11 mph 1022.6mb 58f 60f
7:00 0.7ft 2s 9 11 mph 1022.4mb 58f 60f
6:00 0.7ft 2s 13 13 mph 1021.9mb 58f 61f
5:00 0.7ft 2s 11 13 mph 1021.7mb 59f 60f
4:00 0.7ft 2s 7 9 mph 1021.9mb 59f 60f
3:00 0.7ft 2s 13 16 mph 1021.7mb 60f 61f
2:00 1ft 2s 13 16 mph 1022mb 59f 62f
1:00 1ft 2s 13 16 mph 1022mb 60f 63f
12:00 0.7ft 2s 13 16 mph 1022mb 60f 65f
Sex 06/23 11:00 0.7ft 2s 7 9 mph 1022mb 59f 64f
10:00 0.3ft 2s 9 11 mph 1021.8mb 57f 64f
9:00  -  2s 9 11 mph 1021.3mb 57f 65f
8:00  -  2s 9 9 mph 1021.4mb 58f 70f
7:00 0.3ft 2s 7 7 mph 1021.6mb 59f 69f
6:00 0.3ft 2s 4 4 mph 1021.9mb 65f 70f
5:00 0.3ft 2s 2 2 mph 1022.5mb 67f 71f
4:00 0.3ft 2s 4 4 mph 1023.3mb 64f 68f
3:00 0.3ft 3s 2 4 mph 1023.8mb 64f 66f
2:00 0.3ft 2s 7 7 mph 1024.3mb 62f 64f
1:00 0.3ft 4s 4 4 mph 1024.9mb 62f 62f
12:00 0.3ft 2s 2 2 mph 1025.4mb 60f 62f
11:00 0.3ft 2s 4 7 mph 1025.6mb 58f 61f
10:00 0.7ft 2s 7 9 mph 1025.8mb 58f 59f
9:00 0.7ft 2s 11 13 mph 1025.9mb 58f 58f
8:00 1ft 3s 13 16 mph 1025.6mb 57f 57f
7:00 1.3ft 3s 13 13 mph 1025.4mb 57f 56f
6:00 1.3ft 3s 11 13 mph 1025.1mb 57f 57f
5:00 1.3ft 2s 13 16 mph 1024.8mb 57f 57f
4:00 1ft 2s 11 16 mph 1024.7mb 57f 58f
3:00 1ft 3s 13 16 mph 1024.4mb 57f 58f
2:00 1.3ft 3s 11 13 mph 1024.5mb 58f 59f
1:00 0.7ft 2s 13 16 mph 1024.6mb 59f 59f
12:00 0.3ft 2s 11 13 mph 1024.6mb 59f 60f
Qui 06/22 11:00  -  2s 11 13 mph 1024.5mb 59f 62f
10:00 0.3ft 2s 7 7 mph 1024.7mb 59f 65f
9:00 0.3ft 2s 4 7 mph 1024.2mb 61f 67f
8:00 0.3ft 2s 4 7 mph 1024.1mb 61f 65f
7:00 0.3ft 3s 4 7 mph 1024.5mb 61f 63f
6:00  -  2s 4 4 mph 1024.7mb 60f 64f
5:00  -  3s 4 4 mph 1025.4mb 63f 64f
4:00 0.3ft 2s 2 4 mph 1025.9mb 65f 63f
3:00 0.3ft 2s  -  2 mph 1026.6mb 65f 64f
2:00 0.3ft 3s 2 2 mph 1027mb 64f 61f
1:00 0.3ft 2s  -  2 mph 1027.5mb 60f 61f
12:00 0.3ft 2s 2 2 mph 1027.7mb 60f 59f
11:00 0.7ft 2s 4 4 mph 1028.1mb 57f 57f
10:00 1ft 3s 9 9 mph 1028.3mb 57f 56f
9:00 1ft 3s 11 13 mph 1028.2mb 57f 55f
8:00 1.3ft 3s 11 13 mph 1027.8mb 57f 55f
7:00 1.3ft 2s 13 16 mph 1027.6mb 58f 54f
6:00 1.6ft 2s 16 18 mph 1027.1mb 58f 54f
5:00 2ft 3s 18 20 mph 1026.6mb 58f 54f
4:00 2ft 3s 20 25 mph 1026mb 58f 55f
3:00 1.6ft 3s 18 20 mph 1026mb 58f 56f
2:00 1.6ft 3s 16 18 mph 1026.3mb 59f 57f
1:00 1.6ft 3s 16 20 mph 1026.5mb 59f 57f
12:00 1.6ft 3s 18 20 mph 1026.2mb 59f 58f
Qua 06/21 11:00 1.6ft 4s 18 20 mph 1025.8mb 59f 59f
10:00 2ft 3s 18 20 mph 1025.7mb 59f 60f
9:00 1.6ft 3s 18 20 mph 1025.4mb 60f 61f
8:00 2ft 3s 18 22 mph 1025mb 60f 62f
7:00 1.6ft 3s 18 22 mph 1024.9mb 60f 62f
6:00 1.6ft 3s 18 22 mph 1024.9mb 60f 62f
5:00 1.6ft 3s 20 25 mph 1025mb 60f 63f
4:00 1.3ft 3s 16 20 mph 1025.4mb 60f 62f
3:00 1.3ft 3s 16 20 mph 1025.7mb 60f 62f
2:00 2ft 3s 13 16 mph 1026mb 59f 61f
1:00 1.6ft 3s 16 18 mph 1025.9mb 59f 60f
12:00 1.6ft 3s 18 22 mph 1026.2mb 59f 60f
11:00 2ft 3s 18 22 mph 1026mb 59f 58f
10:00 1.3ft 3s 16 20 mph 1026.4mb 59f 58f
9:00 1ft 3s 13 16 mph 1026.3mb 59f 57f
8:00 1.3ft 3s 11 13 mph 1025.8mb 59f 56f
7:00 1.6ft 3s 16 20 mph 1025.1mb 59f 55f
6:00 1.6ft 3s 16 18 mph 1024.7mb 59f 55f
5:00 1.3ft 3s 16 20 mph 1024.2mb 59f 55f
4:00 1.3ft 3s 18 20 mph 1024.2mb 59f 56f
3:00 1.3ft 3s 13 16 mph 1023.9mb 59f 56f
2:00 1.3ft 3s 18 20 mph 1023.6mb 59f 56f
1:00 1.6ft 3s 13 18 mph 1023.5mb 59f 57f